Location: Arpaise
(41.0333°N, 14.7333°E)
Time: 01:36:16
(UTC+00:00)

Cosmos 1110 Rocket - Pass Details

Date: 05 July 2020
Orbit: 752 x 782 km, 74.0° (Epoch: 11 August)

Event Time Altitude Azimuth Distance (km) Brightness Sun altitude
Rises 23:31:42 0° 344° (NNW) 3,252 8.3 -26.0°
Reaches altitude 10° 23:34:07 10° 348° (NNW) 2,325 7.4 -26.0°
Maximum altitude 23:39:21 60° 68° (ENE) 891 4.4 -25.8°
Enters shadow 23:40:18 51° 111° (ESE) 974 4.4 -25.8°
